Regional Weather Roundup
Issued by NWS

Home | Current Version | Previous Version | Text Only | Print | Product List | Glossary On
Versions: 1 2 3 4 5 6 7 8 9 10 11 12 13 14 15 16 17 18 19 20 21 22 23 24 25 26 27 28 29 30 31 32 33 34 35 36 37 38 39 40 41 42 43 44 45 46 47 48 49 50
000
ASUS43 KMPX 262301
RWRMN
WEATHER ROUNDUP FOR MINNESOTA
NATIONAL WEATHER SERVICE TWIN CITIES/CHANHASSEN MN
600 PM CDT SUN APR 26 2015


NOTE: "FAIR" INDICATES FEW OR NO CLOUDS BELOW 12,000 FEET WITH NO
SIGNIFICANT WEATHER AND/OR OBSTRUCTIONS TO VISIBILITY. N/A MEANS
CURRENT SKY AND/OR WEATHER CONDITIONS ARE NOT AVAILABLE.

MNZ060>063-068>070-270000-
   Twin Cities Metro

CITY           SKY/WX    TMP DP  RH WIND       PRES   REMARKS
TWIN CITIES    MOSUNNY   62  22  21 NE10G22   30.08S
ST PAUL        SUNNY     62  21  20 N10       30.08F
CRYSTAL        SUNNY     64  23  21 N8G17     30.07F
BLAINE         SUNNY     63  23  22 E6        30.08S
LAKEVILLE      SUNNY     61  25  25 NE9       30.07S
EDEN PRAIRIE   SUNNY     62  24  23 NE8       30.07S
SOUTH ST PAUL  SUNNY     63  21  20 NE7       30.07F
LAKE ELMO      FAIR      63  27  25 N5        30.08F
$$
MNZ001>005-007-008-013>017-022>024-027-028-270000-
   Northwest Minnesota

CITY           SKY/WX    TMP DP  RH WIND       PRES   REMARKS
BEMIDJI        MOSUNNY   62  22  21 SW3       30.12F
HALLOCK        SUNNY     68  18  14 SW6       30.10R
ROSEAU         SUNNY     66  25  20 E7        30.12S
WARROAD        MOSUNNY   55  28  35 NE9       30.14F
THIEF RVR FALL SUNNY     66  25  20 CALM      30.11F
CROOKSTON      SUNNY     66  27  22 NW3       30.11S
FOSSTON        SUNNY     68  30  24 CALM      30.11S
DETROIT LAKES  MOSUNNY   63  21  20 E7        30.11F
MOORHEAD       SUNNY     66  21  18 E6        30.10S
PARK RAPIDS    SUNNY     63  12  13 E5        30.11S
MAHNOMEN       FAIR      65  24  20 NE6       30.09F
$$
MNZ006-009>011-018-025>026-270000-
   North Central Minnesota

CITY           SKY/WX    TMP DP  RH WIND       PRES   REMARKS
BAUDETTE       MOSUNNY   62  21  20 VRB5      30.14S
FLAG ISLAND    MOSUNNY   55  25  30 SE6       30.14S
INTL FALLS     SUNNY     60   1   9 VRB6      30.15S
WASKISH        SUNNY     59  30  33 W7        30.13S
BIG FORK       SUNNY     63  14  15 N5        30.13S
LONGVILLE      SUNNY     61  16  17 NW5       30.12S
GRAND RAPIDS   SUNNY     61  14  16 N9        30.12F
CRANE LAKE     SUNNY     59  12  15 N5        30.16S
ORR            SUNNY     61   7  11 CALM      30.11S
COOK           SUNNY     61  18  18 NW8       30.13F
WALKER         FAIR      59  19  21 E5        30.13S
$$
MNZ012-019>021-037-270000-
   Northeast Minnesota

CITY           SKY/WX    TMP DP  RH WIND       PRES   REMARKS
DULUTH         SUNNY     50  18  28 SE12      30.14R
ELY            SUNNY     57  18  21 NE3       30.13S
HIBBING        SUNNY     62  13  14 N10       30.12S
EVELETH        SUNNY     59  14  17 N8        30.13S
DULUTH HARBOR  SUNNY     39  34  81 NE3       30.17F
TWO HARBORS    SUNNY     54  28  37 CALM      30.14S
SILVER BAY     SUNNY     48  25  40 SE5       30.14S
GRAND MARAIS     N/A     42  31  64 W6        30.17S
G MARAIS ARPRT SUNNY     46  25  42 SE3       30.14S
$$
MNZ029>031-032-039>041-046>048-054>057-064-270000-
   West Central Minnesota

CITY           SKY/WX    TMP DP  RH WIND       PRES   REMARKS
FERGUS FALLS   SUNNY     63  12  14 SE8       30.10F
WHEATON        SUNNY     63  27  25 NE6G16    30.11S
MORRIS         SUNNY     64  21  19 E7        30.09S
ALEXANDRIA     SUNNY     62  18  18 NE12      30.11S
ELBOW LAKE     FAIR      62  25  24 NE5       30.10S
WADENA         MOSUNNY   61  23  23 CALM      30.11S
GLENWOOD       SUNNY     63  16  16 NE10      30.11S
APPLETON       SUNNY     66  16  14 NE10G17   30.08S
BENSON         SUNNY     64   9  11 E7        30.09S
ORTONVILLE     SUNNY     64  23  20 NE6       30.08S
MADISON        SUNNY     64  21  19 NE12      30.08S
WILLMAR        FAIR      63  18  17 NE7       30.10S
$$
MNZ033>034-036-042>043-049>051-058-059-270000-
   Central Minnesota

CITY           SKY/WX    TMP DP  RH WIND       PRES   REMARKS
ST CLOUD       SUNNY     61  20  20 E5        30.09F
SAUK CENTRE    FAIR      60  17  18 NE8       30.11R
PAYNESVILLE    SUNNY     58  16  19 N7        30.10S
AITKIN         SUNNY     63  -2   7 E3        30.10S
PINE RIVER     SUNNY     61  27  27 N7        30.14S
BRAINERD       SUNNY     62  14  15 CALM      30.11F
STAPLES        SUNNY     61  12  15 N8        30.11S
LONG PRAIRIE   FAIR      59  14  17 NE9       30.11S
LITTLE FALLS   SUNNY     59  10  14 NE8       30.11S
LITCHFIELD     SUNNY     63  19  19 NE7       30.10R
BUFFALO        SUNNY     61  20  21 N5        30.09S
MAPLE LAKE     SUNNY     63  25  23 NE8       30.10S
$$
MNZ037-044-045-052-053-270000-
   East Central Minnesota

CITY           SKY/WX    TMP DP  RH WIND       PRES   REMARKS
PRINCETON      SUNNY     63  21  20 NE7       30.10S
MORA           SUNNY     59  18  20 NE7       30.12S
CAMBRIDGE      SUNNY     64  37  36 N6        30.08S
RUSH CITY      SUNNY     62  24  23 NE10      30.10S
MOOSE LAKE     SUNNY     59  21  23 CALM      30.11S
HINCKLEY       FAIR      59  19  21 NE7       30.11S
CLOQUET        SUNNY     55   7  14 SE8       30.13S
MCGREGOR       SUNNY     63  19  19 N8        30.11F
$$
MNZ071>073-080-081-089-090-097-098-270000-
   Southwest Minnesota

CITY           SKY/WX    TMP DP  RH WIND       PRES   REMARKS
MONTEVIDEO     SUNNY     66  23  19 E9        30.09R
GRANITE FALLS  SUNNY     64  25  22 N14       30.09S
CANBY          SUNNY     65  27  24 NE6G16    30.08S
MARSHALL       SUNNY     64  25  22 N8        30.06S
REDWOOD FALLS  SUNNY     65  17  15 VRB6      30.06S
OLIVIA         SUNNY     61  18  18 NE8       30.07S
PIPESTONE      SUNNY     64  27  24 NE8       30.05S
WORTHINGTON    SUNNY     63  27  25 N12       30.04F
JACKSON        SUNNY     64  23  20 NE15      30.05R
TRACY          SUNNY     65  26  22 NE14G20   30.06S
SLAYTON        SUNNY     64  25  23 N6        30.06S
$$
MNZ065>067-074>077-082>085-091>093-270000-
   South Central Minnesota

CITY           SKY/WX    TMP DP  RH WIND       PRES   REMARKS
MANKATO        SUNNY     63  21  20 NE6       30.06S
NEW ULM        SUNNY     64  19  17 NE6       30.06R
ST JAMES       SUNNY     64  16  15 NE7       30.06S
FAIRMONT       SUNNY     64  27  24 N8        30.04S
GLENCOE        SUNNY     62  26  25 NE3       30.08R
FARIBAULT      SUNNY     63  21  20 N8G16     30.07S
OWATONNA       SUNNY     61  21  21 NE7       30.06S
WASECA         SUNNY     63  23  22 N7        30.07S
ALBERT LEA     SUNNY     61  21  21 NE10      30.05S
$$
MNZ078>079-086>088-094>096-270000-
   Southeast Minnesota

CITY           SKY/WX    TMP DP  RH WIND       PRES   REMARKS
ROCHESTER      SUNNY     59  26  28 N13       30.07R
RED WING       SUNNY     63  19  19 N8        30.06S
STANTON        SUNNY     63  20  19 NE12G18   30.06S
DODGE CENTER   SUNNY     59  27  29 NE9G18    30.07R
WINONA         SUNNY     61  27  27 N9        30.05S
AUSTIN         SUNNY     61  28  29 N8        30.06R
PRESTON        SUNNY     58  26  29 N9G16     30.06R
$$
ABBREVIATIONS USED IN REMARKS
   TC - TEMPERATURES IN CELSIUS
  WCI - WIND CHILL INDEX
   HX - HEAT INDEX
  VSB - VISIBILITY
$$


USA.gov is the U.S. government's official web portal to all federal, state and local government web resources and services.